Regional Weather Roundup
Issued by NWS

Home | Current Version | Previous Version | Text Only | Print | Product List | Glossary Off
Versions: 1 2 3 4 5 6 7 8 9 10 11 12 13 14 15 16 17 18 19 20 21 22 23 24 25 26 27 28 29 30 31 32 33 34 35 36 37 38 39 40 41 42 43 44 45 46 47 48 49 50

000
ASUS43 KLOT 211503
RWRIL

ILLINOIS REGIONAL WEATHER ROUNDUP
NATIONAL WEATHER SERVICE CHICAGO/ROMEOVILLE IL
900 AM CST SAT JAN 21 2017

NOTE: "FAIR" INDICATES FEW OR NO CLOUDS BELOW 12,000 FEET WITH NO
SIGNIFICANT WEATHER AND/OR OBSTRUCTIONS TO VISIBILITY.

* THESE STATIONS ARE NOT UNDER NWS QUALITY CONTROL. THEY ALSO MAY NOT
  REPORT WEATHER SUCH AS PRECIPITATION OR FOG.

ILZ001-002-007-009-015-016-024-211600-
NORTHWEST ILLINOIS

CITY           SKY/WX    TMP DP  RH WIND       PRES   REMARKS
MOLINE         SUNNY     48  43  82 S13       29.43S
STERLING*      FOG       42  42 100 VRB3      29.47R VSB 1/4
SAVANNA*       FOG       44  44  99 S6        29.45S VSB 1/4
$$

ILZ003-004-008-010-011-017-018-211600-
NORTH CENTRAL ILLINOIS

CITY           SKY/WX    TMP DP  RH WIND       PRES   REMARKS
ROCKFORD       FOG       46  45  96 S8        29.49S VSB 1/2
FREEPORT*      FOG       44  44 100 S10       29.47S VSB 1/2
ROCHELLE*      FOG       44  44 100 S12       29.49R VSB 1
DE KALB*       FOG       44  44  99 SE13      29.50S VSB<1/4
$$

ILZ005-006-012>014-019>023-211600-
NORTHEAST ILLINOIS

CITY           SKY/WX    TMP DP  RH WIND       PRES   REMARKS
CHICAGO-OHARE  PTSUNNY   49  47  93 S8        29.51F FOG
CHICAGO-MIDWAY MOSUNNY   49  46  90 S8        29.53S
AURORA         MOSUNNY   47  46  97 SE9       29.51  FOG
LANSING*       PTSUNNY   48  48 100 SE7       29.55S FOG
JOLIET*        SUNNY     48  48 100 CALM      29.53R FOG
WAUKEGAN       FOG       42  42 100 SE5       29.51F VSB 1/4
DUPAGE AIRPORT FOG       47  46  97 S8        29.51S VSB 1
KANKAKEE*      SUNNY     50  47  91 SE10G16   29.55S
WHEELING       CLOUDY    49  47  93 S9        29.52F
MORRIS*        SUNNY     47  46  99 S9        29.50S FOG
NORTHERLY ISL    N/A     40  40 100 E3          N/A
$$

LMZ740>746-211600-
SOUTHERN LAKE MICHIGAN

STATION/POSITION SKY/WX   TEMP    WIND        PRES    VSBY  WAVE
                          AIR SEA DIR/SP/G                  HT/PER
                          (F)     (DEG/KT/KT) (MB)    (MI)  (FT/S)
HARRISON CRIB              47     170/ 14/ 15   N/A
BURNHAM HARBOR             41     110/  2/ 10   N/A
CALUMET HARBOR             49     170/  6/  9  999.9R
BURNS HARBOR               50     160/ 11/ 16 1001.7S
$$

ILZ025>027-034>036-040-047-049-050-058-095>099-211600-
WEST-CENTRAL ILLINOIS

CITY           SKY/WX    TMP DP  RH WIND       PRES   REMARKS
QUINCY         SUNNY     50  42  74 SW16G24   29.49R
GALESBURG*     SUNNY     46  46 100 S13       29.46R
MACOMB*        SUNNY     49  47  93 SW14      29.49R
JACKSONVILLE*  SUNNY     52  46  78 S13       29.51R
PITTSFIELD*    SUNNY     53  44  72 SW13      29.52R
$$

ILZ028>032-037-038-041>044-048-051>054-059>061-211600-
CENTRAL ILLINOIS

CITY           SKY/WX    TMP DP  RH WIND       PRES   REMARKS
BLOOMINGTON    SUNNY     50  46  86 S16       29.53R
DECATUR        SUNNY     50  48  93 S17       29.55R
PEORIA         SUNNY     50  46  86 S13       29.49R
LACON*         SUNNY     49  46  89 S6        29.48S
LINCOLN*       SUNNY     51  48  90 S13       29.52S
SPRINGFIELD    SUNNY     53  47  79 S14G24    29.53R
TAYLORVILLE    SUNNY     50  47  88 S12G17    29.55S
$$

ILZ033-039-045-046-055>057-062-063-211600-
EAST-CENTRAL ILLINOIS

CITY           SKY/WX    TMP DP  RH WIND       PRES   REMARKS
CHAMPAIGN      CLOUDY    50  47  89 S17       29.56R
MATTOON        MOSUNNY   51  49  92 S10       29.57S
PARIS*         MOSUNNY   51  50  97 S14       29.60S
$$

ILZ079-100>102-211600-
SOUTHWEST ILLINOIS

CITY           SKY/WX    TMP DP  RH WIND       PRES   REMARKS
ALTON          MOSUNNY   52  46  82 S14       29.56R
BELLEVILLE     MOSUNNY   53  53  99 VRB5      29.56R FOG
CAHOKIA*       SUNNY     53  47  79 SE5       29.57R
SPARTA*        MOSUNNY   53  49  87 S10       29.59S
$$

ILZ064>066-069>071-074>076-080>082-084>086-088>090-092>094-211600-
SOUTH-CENTRAL ILLINOIS

CITY           SKY/WX    TMP DP  RH WIND       PRES   REMARKS
CARBONDALE     CLOUDY    54  53  97 S8        29.61S
CAIRO*         CLOUDY    56  53  88 S9        29.64R
EFFINGHAM*     MOSUNNY   52  52 100 SE5       29.60S
MARION         PTSUNNY   55  55 100 S10       29.62F
MT. VERNON     CLOUDY    55  52  89 S9        29.60F
CENTRALIA*     CLOUDY    55  52  92 S14       29.58S
SALEM*         PTSUNNY   57  51  80 S14G20    29.58S
METROPOLIS*    PTSUNNY   54  52  94 CALM      29.66R
$$

ILZ067-068-072-073-078-083-087-091-211600-
SOUTHEAST ILLINOIS

CITY           SKY/WX    TMP DP  RH WIND       PRES   REMARKS
LAWRENCEVILLE  PTSUNNY   53  51  93 S12       29.62F
FLORA*         PTSUNNY   54  52  91 S9        29.60F
FAIRFIELD*     CLOUDY    53  52  95 S5        29.61S
HARRISBURG*    PTSUNNY   55  52  89 S12       29.63S
ROBINSON*      PTSUNNY   52  50  93 S10       29.63S
CARMI*         CLOUDY    53  52  94 S8        29.62F
$$

ABBREVIATIONS USED IN REMARKS
   TC - TEMPERATURE IN CELSIUS
  WCI - WIND CHILL INDEX
   HX - HEAT INDEX
  VSB - VISIBILITY
$$





USA.gov is the U.S. government's official web portal to all federal, state and local government web resources and services.